San Antonio, TX

11:27 PM CDT on August 28, 2016 (GMT -0500)
San Antonio International

Weather History for KSAT - April, 2015

Change the Weather History Date:

Thursday, April 16, 2015

  Actual Average Record
Temperature  
Mean Temperature 72 °F 69 °F  
Max Temperature 75 °F 81 °F 95 °F (1920)
Min Temperature 68 °F 58 °F 35 °F (1961)
Degree Days  
Heating Degree Days 0 1  
Month to date heating degree days 1 31  
Since 1 July heating degree days 1488 1486  
Cooling Degree Days 7 6  
Month to date cooling degree days 119 72  
Year to date cooling degree days 188 163  
Growing Degree Days 22 (Base 50)    
Moisture  
Dew Point 66 °F    
Average Humidity 86    
Maximum Humidity 93    
Minimum Humidity 79    
Precipitation  
Precipitation 0.01 in 0.06 in 2.01 in (2002)
Month to date precipitation 2.20 0.97  
Year to date precipitation 9.37 6.83  
Snow  
Snow 0.00 in - - ()
Month to date snowfall 0.0  
Since 1 July snowfall T  
Snow Depth 0.00 in    
Sea Level Pressure  
Sea Level Pressure 29.88 in    
Wind  
Wind Speed 7 mph (East)    
Max Wind Speed 15 mph    
Max Gust Speed 21 mph    
Visibility 9 miles    
Events Rain , Thunderstorm    
T = Trace of Precipitation, MM = Missing Value Source: NWS Daily Summary

Daily Weather History Graph

Daily Weather History Graph

Search for Another Location

Airport or City:

Trip Planner

Search our weather history database for the weather conditions in past years. The results will help you decide how hot, cold, wet, or windy it might be!

Date:

Astronomy

Apr. 16, 2015 Rise Set
Actual Time 7:06 AM CDT 8:01 PM CDT
Civil Twilight 6:42 AM CDT 8:25 PM CDT
Nautical Twilight 6:13 AM CDT 8:54 PM CDT
Astronomical Twilight 5:43 AM CDT 9:24 PM CDT
Moon 5:34 AM CDT (4/16) 6:00 PM CDT (4/16)
Length of Visible Light 13h 43m
Length of Day
12h 54m
Waning Crescent, 6% of the Moon is Illuminated
Apr 16
Waning Crescent
Apr 18
New
Apr 25
First Quarter
May 3
Full
May 11
Last Quarter

Hourly Weather History & Observations

Time (CDT) Temp. Dew Point Humidity Pressure Visibility Wind Dir Wind Speed Gust Speed Precip Events Conditions
12:51 AM 71.1 °F 66.0 °F 84% 29.91 in 10.0 mi South 10.4 mph - N/A   Overcast
1:51 AM 70.0 °F 66.0 °F 87% 29.88 in 10.0 mi South 11.5 mph - N/A   Mostly Cloudy
2:16 AM 69.1 °F 64.9 °F 87% 29.91 in 9.0 mi SSE 11.5 mph - N/A   Mostly Cloudy
2:51 AM 68.0 °F 66.0 °F 93% 29.86 in 7.0 mi South 9.2 mph - N/A   Mostly Cloudy
3:51 AM 69.1 °F 64.9 °F 87% 29.86 in 8.0 mi SE 4.6 mph - N/A   Overcast
4:51 AM 69.1 °F 64.9 °F 87% 29.87 in 10.0 mi Calm Calm - N/A   Overcast
5:51 AM 68.0 °F 64.9 °F 90% 29.87 in 9.0 mi East 3.5 mph - N/A   Overcast
5:59 AM 68.0 °F 64.9 °F 90% 29.91 in 9.0 mi East 3.5 mph - N/A   Overcast
6:51 AM 69.1 °F 64.9 °F 87% 29.88 in 7.0 mi East 4.6 mph - 0.00 in Rain Light Rain
7:51 AM 69.1 °F 64.9 °F 87% 29.89 in 7.0 mi ENE 3.5 mph - 0.00 in   Overcast
8:35 AM 70.0 °F 66.0 °F 87% 29.94 in 7.0 mi East 6.9 mph - N/A   Overcast
8:51 AM 70.0 °F 66.0 °F 87% 29.90 in 7.0 mi East 9.2 mph - N/A   Overcast
9:51 AM 72.0 °F 64.9 °F 78% 29.92 in 10.0 mi East 9.2 mph - N/A   Overcast
10:28 AM 71.1 °F 64.9 °F 81% 29.98 in 10.0 mi East 6.9 mph - N/A   Overcast
10:51 AM 71.1 °F 64.9 °F 81% 29.94 in 10.0 mi ESE 9.2 mph - N/A   Overcast
11:51 AM 72.0 °F 64.9 °F 78% 29.93 in 10.0 mi ESE 9.2 mph - N/A   Overcast
12:51 PM 73.0 °F 66.9 °F 81% 29.90 in 10.0 mi East 9.2 mph - N/A   Overcast
1:51 PM 73.9 °F 66.9 °F 79% 29.88 in 10.0 mi East 8.1 mph - N/A   Overcast
2:01 PM 73.9 °F 68.0 °F 82% 29.92 in 10.0 mi ENE 9.2 mph - N/A Thunderstorm Thunderstorm
2:27 PM 73.0 °F 68.0 °F 84% 29.90 in 10.0 mi ESE 8.1 mph - 0.01 in Rain Light Rain
2:35 PM 73.0 °F 69.1 °F 87% 29.90 in 10.0 mi East 8.1 mph - 0.01 in Rain Light Rain
2:51 PM 73.9 °F 69.1 °F 85% 29.85 in 10.0 mi East 6.9 mph - 0.01 in   Overcast
3:42 PM 72.0 °F 69.1 °F 91% 29.87 in 5.0 mi ESE 6.9 mph - 0.00 in Rain Light Rain
3:51 PM 72.0 °F 69.1 °F 91% 29.83 in 5.0 mi East 4.6 mph - 0.00 in Rain Light Rain
4:43 PM 69.1 °F 64.0 °F 84% 29.87 in 10.0 mi North 8.1 mph - 0.00 in   Overcast
4:51 PM 69.1 °F 64.0 °F 84% 29.82 in 10.0 mi NNE 10.4 mph - 0.00 in   Overcast
5:33 PM 70.0 °F 64.0 °F 81% 29.85 in 10.0 mi North 5.8 mph - 0.00 in Rain Light Rain
5:51 PM 71.1 °F 64.0 °F 78% 29.81 in 10.0 mi NE 3.5 mph - 0.00 in   Overcast
6:24 PM 71.6 °F 64.4 °F 78% 29.85 in 10.0 mi ENE 5.8 mph - N/A   Overcast
6:51 PM 71.1 °F 64.0 °F 78% 29.81 in 10.0 mi ENE 6.9 mph - N/A   Overcast
7:51 PM 70.0 °F 64.0 °F 81% 29.81 in 10.0 mi ENE 5.8 mph - N/A   Overcast
8:51 PM 69.1 °F 64.9 °F 87% 29.83 in 10.0 mi ENE 5.8 mph - N/A   Overcast
9:09 PM 69.1 °F 64.9 °F 87% 29.87 in 10.0 mi NNE 3.5 mph - N/A   Scattered Clouds
9:40 PM 69.1 °F 64.9 °F 87% 29.88 in 10.0 mi NE 4.6 mph - N/A   Mostly Cloudy
9:51 PM 69.1 °F 64.9 °F 87% 29.85 in 10.0 mi NE 4.6 mph - N/A   Mostly Cloudy
10:47 PM 69.8 °F 66.2 °F 88% 29.93 in 10.0 mi NE 3.5 mph - N/A   Overcast
10:51 PM 70.0 °F 66.0 °F 87% 29.88 in 10.0 mi NE 3.5 mph - N/A   Overcast
11:51 PM 70.0 °F 66.0 °F 87% 29.90 in 10.0 mi NE 4.6 mph - N/A   Overcast